Regional Weather Roundup
Issued by NWS

Home | Current Version | Previous Version | Graphics & Text | Print | Product List | Glossary Off
Versions: 1 2 3 4 5 6 7 8 9 10 11 12 13 14 15 16 17 18 19 20 21 22 23 24 25 26 27 28 29 30 31 32 33 34 35 36 37 38 39 40 41 42 43 44 45 46 47 48 49 50

712
ASUS43 KMKX 260811
RWRWI

WISCONSIN REGIONAL WEATHER ROUNDUP
NATIONAL WEATHER SERVICE MILWAUKEE/SULLIVAN WI
300 AM CDT TUE JUL 26 2016

NOTE: "FAIR" INDICATES FEW OR NO CLOUDS BELOW 12,000 FEET WITH NO
SIGNIFICANT WEATHER AND/OR OBSTRUCTIONS TO VISIBILITY.

WIZ001-002-006>008-014>016-023>028-260900-
NORTHWEST WISCONSIN

CITY           SKY/WX    TMP DP  RH WIND       PRES   REMARKS
SUPERIOR ARPT  CLEAR     67  65  93 SW8       29.99S
ASHLAND        CLEAR     66  63  90 SW5       30.00S
HAYWARD        CLEAR     62  60  93 CALM      30.04S
SIREN          PTCLDY    66  64  94 CALM      30.03S
CUMBERLAND     CLEAR     61  61 100 S3        30.06R
RICE LAKE      FOG       62  61  96 CALM      30.06S VSB 1/4
CHETEK         CLEAR     64  64  99 CALM      30.06R
LADYSMITH      CLEAR     63  62  95 CALM      30.07S
EAU CLAIRE     FAIR      67  65  93 SW3       30.05R
MENOMONIE      FAIR      65  63  93 CALM      30.05S
NEW RICHMOND   FAIR      66  65  96 S5        30.05S
OSCEOLA        PTCLDY    64  64 100 CALM      30.06S
$$

WIZ003>005-009-010-017-018-260900-
NORTH CENTRAL WISCONSIN

CITY           SKY/WX    TMP DP  RH WIND       PRES   REMARKS
MANITOWISH WTR FOG       58  58 100 CALM      30.05S VSB 1/4
ARBOR VITAE    CLEAR     62  60  92 CALM      30.06S
WOODRUFF       CLEAR     62  60  92 CALM      30.06S
RHINELANDER    CLEAR     61  59  93 W6        30.07R
EAGLE RIVER    PTCLDY    59  59 100 CALM      30.06R FOG
LAND O LAKES   CLEAR     54  54  99 CALM      30.06S
PHILLIPS       CLEAR     60  60 100 CALM      30.05S
TOMAHAWK       CLEAR     56  55  95 CALM      30.07S
MEDFORD        FOG       57  57 100 CALM      30.07S VSB 1/4
MERRILL        CLEAR     57  57 100 CALM      30.07S
$$

WIZ029-030-035-036-043>047-260900-
CENTRAL WISCONSIN

CITY           SKY/WX    TMP DP  RH WIND       PRES   REMARKS
WAUSAU         FAIR      64  61  90 CALM      30.05S
MOSINEE        CLEAR     61  61 100 W5        30.07S
MARSHFIELD     CLEAR     64  59  83 W5        30.07R
STEVENS POINT  CLEAR     58  57  97 CALM      30.07R
WAUPACA        PTCLDY    64  63  97 CALM      30.05R
WAUTOMA        PTCLDY    61  60  97 CALM      30.06S
WISC RAPIDS    CLEAR     62  59  90 CALM      30.07S FOG
CAMP DOUGLAS   FOG       57  57 100 CALM      30.06R VSB 1/4
$$

WIZ011>013-019>022-031-037>040-048>050-260900-
NORTHEAST WISCONSIN

CITY           SKY/WX    TMP DP  RH WIND       PRES   REMARKS
ANTIGO         CLEAR     57  57  99 CALM      30.07S
SHAWANO        FAIR      62  60  92 CALM      30.04S
OCONTO         FAIR     N/A N/A N/A CALM      30.02R
STURGEON BAY   FAIR      64  63  96 CALM      30.02S
GREEN BAY      PTCLDY    64  64 100 NW7       30.02S
MANITOWOC      PTCLDY    68  61  78 NW6       30.02S
APPLETON       CLEAR     64  63  94 NW9       30.02S
CLINTONVILLE   PTCLDY    63  59  88 CALM      30.04S
OSHKOSH        CLEAR     67  61  81 W5        30.03S
$$

WIZ032>034-041-042-053>061-260900-
SOUTHWEST WISCONSIN

CITY           SKY/WX    TMP DP  RH WIND       PRES   REMARKS
LA CROSSE      PTCLDY    68  66  93 SE5       30.06R
SPARTA         CLEAR     58  58  99 CALM      30.07S
VIROQUA        PTCLDY    63  63  99 CALM      30.08S
BOSCOBEL       FOG       65  64  97 SW3       30.06S VSB 1/4
PRAIRIE DU CHI CLEAR     64  62  93 CALM      30.06S
PLATTEVILLE    CLEAR     65  65  97 CALM      30.07S
$$

WIZ056-057-062-063-064-067-068-260900-
SOUTH CENTRAL WISCONSIN

CITY           SKY/WX    TMP DP  RH WIND       PRES   REMARKS
REEDSBURG      CLEAR     64  64 100 CALM      30.06S
BARABOO/DELLS  CLEAR     63  61  94 CALM      30.06S
LONE ROCK      MOCLDY    63  62  97 CALM      30.07R FOG
MINERAL POINT  CLEAR     68  64  88 CALM      30.07S
MADISON        PTCLDY    65  63  93 CALM      30.05R
MIDDLETON      PTCLDY    64  64 100 CALM      30.06S
WATERTOWN      PTCLDY    64  64 100 CALM      30.04S
MONROE         CLEAR     70  63  78 NW7       30.06S
JANESVILLE     FOG       64  64 100 CALM      30.05R VSB 3/4
$$

WIZ051-052-058>065-066-070>072-260900-
SOUTHEAST WISCONSIN

CITY           SKY/WX    TMP DP  RH WIND       PRES   REMARKS
MILWAUKEE      CLEAR     71  64  78 CALM      30.03S
WAUKESHA       CLEAR     63  61  94 CALM      30.06R
MILWAUKEE/TIMM CLEAR     64  59  82 SW3       30.04S
RACINE         PTCLDY    68  62  81 W3        30.05S
BURLINGTON     CLEAR     62  62 100 CALM      30.05R FOG
KENOSHA        PTCLDY    64  62  93 W3        30.04S
FOND DU LAC    CLEAR     63  60  90 CALM      30.04S
SHEBOYGAN      CLEAR     63  60  90 CALM      30.02F
WEST BEND      CLEAR     61  61 100 CALM      30.04S
JUNEAU         CLEAR     63  63  97 CALM      30.06R
$$

LSZ147-162-260900-
LAKE SUPERIOR

STATION/POSITION TIME  TEMP    WIND        PRES    WAVE
                       AIR SEA DIR/SP/G            HT/PER
                 (UTC) (F)     (DEG/KT/KT) (MB)    (FT/S)
W MID LAKE BUOY  0750   63 60  250/  8/  8 1014.1R   0
DEVILS ISLAND    0800   69     240/ 10/ 11 1015.0R
SAXON HARBOR     0740   70     200/  9/ 11 1015.2S
$$

LMZ867-665-643>646-260900-
LAKE MICHIGAN

STATION/POSITION TIME  TEMP    WIND        PRES    WAVE
                       AIR SEA DIR/SP/G            HT/PER
                 (UTC) (F)     (DEG/KT/KT) (MB)    (FT/S)
CHAMBERS ISLAND  0700   63      CALM  /  2 1015.9S
S GREEN BAY BUOY 0630   72 74  300/  6/  8   N/A
N MID LAKE BUOY  0750   69 69  200/  6/  6 1015.2F   1
NORTHPORT PIER   0700   66      CALM  /  2 1015.9S
SISTER BAY       0721   68        CALM       N/A
ALGOMA LAKESHORE 0713          320/  5/  6   N/A
KEWAUNEE LAKESHO 0700   68     290/  4/  6 1015.9R
SHEBOYGAN LAKESH 0800   72     290/  9/ 10 1016.4S
PORT WASHINGTON  0700   72     290/  6/  7 1017.3S
ATWATER BUOY     0800   66 58  200/  2/  2 1018.4S
MILWAUKEE LAKESH 0710   71     190/  2/  2   N/A
S MID LAKE BUOY  0750   73 73  250/  2/  2 1016.1F   0
KENOSHA   LAKESH 0800   73     260/  6/  7 1016.6S
$$

TC  - TEMPERATURE IN CELSIUS
VSB - VISIBILITY IN STATUTE MILES
WCI - WIND CHILL INDEX
HX  - HEAT INDEX





USA.gov is the U.S. government's official web portal to all federal, state and local government web resources and services.